Wetbulb
43.43 40.74 39.52 43.78 45.94 46.58 53.74 52.36 52.24 56.08 60.24 57.02 54.72 54.05 55.37 58.04 59.78 60.57 61.57 60.89 61.33 62.73 63.98 65.38 66.80 67.12 67.25 68.07 67.24 67.57 68.02 67.24 68.75 68.26 66.96 66.60 67.16 67.88 67.95 67.51 69.58 70.40 69.52 69.48
41.11 38.41 43.84 46.55 47.54 49.75 53.58 50.72 52.27 55.60 59.73 56.99 54.64 53.89 56.70 56.61 58.00 60.63 60.67 61.75 62.11 62.05 62.54 64.50 64.50 66.22 67.70 68.29 67.87 67.51 67.89 67.29 69.16 68.78 68.15 67.86 67.47 68.01 67.70 66.99 69.41 71.41 69.90 68.00
39.51 43.38 46.83 45.54 47.78 53.89 52.34 50.39 52.15 51.32 57.04 57.89 55.30 51.73 53.32 56.93 57.87 59.97 61.43 62.77 63.70 62.31 62.16 63.37 64.01 65.82 68.06 66.81 67.17 67.80 67.47 67.72 68.30 69.18 68.96 68.82 68.61 68.42 68.33 68.64 69.51 71.14 70.43 70.40
41.90 46.26 45.64 43.88 47.33 54.27 47.36 55.66 55.46 53.26 50.92 44.68 54.46 43.63 50.96 54.62 56.07 57.06 58.38 60.26 62.73 63.42 63.36 63.34 64.00 65.27 65.91 67.14 68.36 68.41 67.98 67.64 68.54 69.83 68.64 67.64 66.85 66.13 67.13 69.12 70.00 69.84 70.66 69.72
44.73 46.12 47.06 46.06 51.95 55.36 51.96 57.38 53.68 53.75 50.05 48.94 52.03 47.37 48.26 54.09 53.93 56.29 57.90 59.58 61.84 63.85 63.37 63.61 64.77 65.51 66.86 68.11 68.27 68.75 67.92 67.89 69.32 69.68 68.63 67.47 66.53 66.78 68.54 69.20 68.92 68.62 69.79 69.11
46.42 49.23 47.80 47.54 51.32 54.41 55.79 53.53 47.17 48.27 45.75 39.86 46.60 48.03 45.30 49.75 53.97 55.72 58.95 60.33 61.09 63.74 64.41 64.70 65.54 66.66 66.75 69.01 68.30 68.45 68.14 68.19 69.17 69.13 68.76 67.66 67.07 67.49 69.74 68.57 68.95 68.55 68.69 68.39
44.37 45.51 46.92 48.95 44.45 46.19 44.19 40.29 33.32 35.82 37.07 37.02 42.26 45.54 44.85 54.33 56.54 58.10 57.11 59.90 61.44 63.58 63.70 64.19 64.47 65.56 66.75 67.51 68.44 68.60 67.95 68.00 68.88 68.69 68.74 68.59 67.83 67.53 67.84 68.55 68.92 68.87 68.44 68.63
39.37 40.07 44.33 47.60 45.56 43.37 40.73 39.53 34.89 31.09 34.08 36.86 43.39 39.84 46.58 57.43 58.24 59.13 58.98 59.17 61.41 63.05 63.94 64.59 65.32 66.14 66.42 67.73 68.57 69.26 68.21 67.84 68.82 69.06 68.65 69.08 68.84 68.55 68.05 68.76 68.46 69.29 69.67 69.48
39.11 41.46 49.11 49.37 46.89 46.43 41.53 38.93 42.51 39.00 38.32 38.36 41.92 46.62 51.85 57.94 58.06 58.21 58.64 58.83 59.86 61.98 63.40 64.52 65.54 65.56 65.97 68.34 68.94 69.31 68.61 68.21 68.66 69.26 68.29 68.12 68.95 68.92 68.01 68.43 67.63 68.24 69.05 70.85
43.21 39.20 44.96 49.19 48.85 47.60 43.88 46.14 39.68 39.09 34.92 33.16 39.48 42.77 44.37 51.67 55.08 57.02 56.07 57.55 58.95 62.04 63.21 64.46 65.13 65.79 66.50 67.77 68.91 69.43 69.63 68.72 68.87 69.65 68.84 68.29 68.80 69.40 68.32 68.61 68.19 69.33 70.34 70.94
43.89 41.45 43.27 45.97 43.80 42.76 43.57 41.89 42.36 41.54 38.94 35.32 34.34 39.19 49.94 52.40 54.45 54.32 56.49 58.40 59.44 60.37 62.77 63.49 64.89 65.55 66.36 67.15 68.28 69.21 69.40 69.22 68.56 69.95 69.77 68.38 69.04 69.35 68.12 68.32 69.61 70.64 70.60 70.58
44.63 40.21 37.78 41.15 46.56 46.67 43.99 42.07 42.06 38.12 37.27 39.07 38.51 39.99 53.54 55.49 55.60 57.70 58.04 59.08 60.11 62.28 62.72 62.68 63.21 64.75 66.13 66.66 68.44 68.72 69.82 69.18 69.26 69.70 70.11 69.54 69.59 69.72 68.25 67.78 70.08 70.64 69.66 69.37
45.19 38.26 35.02 38.27 41.18 43.92 42.39 42.82 41.43 41.10 40.23 39.61 37.23 39.81 53.64 54.16 54.97 57.84 58.61 58.61 57.76 60.26 62.87 64.58 64.13 63.79 65.56 66.62 67.91 68.72 70.16 69.77 69.57 69.41 69.96 69.97 69.45 69.45 68.98 68.73 69.66 70.17 70.52 69.98
49.45 36.49 36.77 33.77 36.91 40.26 39.81 42.48 44.44 41.65 38.65 38.50 39.46 41.75 50.16 51.93 53.14 54.75 59.49 56.54 55.93 58.46 60.11 62.82 63.72 64.63 64.75 66.39 66.78 67.56 69.80 70.62 70.56 69.45 69.50 69.43 69.56 69.81 70.15 69.39 69.71 70.19 70.43 70.31
40.95 35.63 35.88 37.16 41.70 42.88 42.36 42.78 42.46 39.30 39.47 40.27 40.12 43.77 47.62 51.89 52.24 54.58 59.41 57.22 56.13 57.87 58.78 60.72 61.95 64.12 65.31 64.43 66.20 67.39 68.25 70.84 71.15 69.56 69.13 69.61 69.92 69.79 70.02 69.78 69.78 70.16 70.53 70.59
40.80 37.10 39.11 38.30 43.04 43.04 41.81 44.71 44.43 46.75 44.61 44.88 44.96 46.32 52.78 53.37 55.49 56.12 58.34 58.32 56.54 59.03 59.59 61.68 62.43 64.08 64.96 65.91 65.05 66.14 67.50 70.74 71.14 69.89 69.21 69.70 69.74 69.66 69.76 69.90 70.05 69.92 69.92 70.79
41.21 39.83 37.27 35.50 40.05 41.16 37.39 43.71 45.23 48.18 49.70 47.48 43.05 46.86 54.71 52.89 55.32 55.21 55.67 55.81 56.08 60.06 62.93 63.16 63.76 64.34 64.13 64.94 66.07 65.36 67.72 70.91 70.45 69.94 69.68 69.95 69.64 69.90 70.10 70.36 70.41 70.23 70.15 70.61
40.52 38.09 36.21 34.75 35.10 31.17 39.97 48.99 52.88 51.03 51.95 52.16 51.78 52.68 53.09 52.43 54.26 54.40 54.17 54.11 55.29 60.22 62.41 62.71 62.25 62.75 64.13 65.26 65.50 65.99 67.34 67.88 67.86 65.74 66.01 67.34 68.74 69.96 70.34 69.86 70.45 70.65 70.27 70.15
41.80 38.38 35.12 34.20 32.50 37.80 43.07 47.90 48.47 48.69 48.56 53.59 52.30 53.97 55.17 56.22 54.80 53.61 56.03 55.93 56.30 60.15 60.83 61.61 62.46 63.38 64.12 65.76 66.44 66.31 65.65 65.42 65.13 65.85 66.98 67.34 68.02 68.26 68.40 68.76 69.14 69.46 68.35 67.97
41.38 39.48 38.93 33.94 32.79 32.36 40.81 49.39 52.26 51.87 44.18 53.89 54.18 54.48 53.50 54.39 47.31 50.21 56.15 59.91 59.54 59.00 60.28 61.33 62.70 63.38 66.05 65.47 66.13 66.25 65.60 65.09 65.02 66.50 65.58 66.57 65.99 68.60 68.85 68.65 67.95 68.62 68.78 67.18
37.88 37.71 36.16 36.12 34.69 38.96 45.29 51.92 51.61 39.80 41.60 53.83 54.60 53.01 52.78 52.23 52.28 52.09 56.55 58.37 58.02 58.93 61.46 62.14 62.71 64.13 66.41 66.50 66.39 66.44 65.65 65.69 66.96 67.49 66.66 65.37 65.99 66.74 67.61 67.72 67.92 67.00 65.50 63.56
39.11 37.25 36.26 36.39 35.10 34.82 50.70 50.56 45.86 47.06 49.18 54.34 54.64 54.33 53.43 54.18 53.92 55.63 56.12 57.12 58.50 57.74 60.59 62.92 62.95 64.24 65.62 65.79 66.57 65.05 65.10 66.25 66.91 65.96 64.15 65.10 65.34 66.41 67.90 65.42 65.10 64.37 62.91 61.58
39.94 41.84 40.12 40.95 40.80 46.40 48.37 47.83 49.53 50.83 51.06 52.10 54.02 55.20 55.18 54.58 54.40 56.91 56.69 55.60 56.30 57.48 59.58 63.33 63.37 63.67 64.76 65.74 64.68 64.42 64.71 65.96 65.87 64.90 64.42 64.42 64.15 63.38 64.03 63.07 62.36 61.91 61.36 60.44
45.38 45.34 42.80 43.54 44.80 48.22 50.97 52.03 52.45 52.93 52.93 53.69 56.11 55.91 56.37 54.53 55.34 56.53 56.36 55.84 55.85 60.32 60.61 62.78 62.33 61.46 63.17 64.26 64.36 64.60 65.89 66.39 65.13 63.72 62.93 62.15 62.16 61.14 61.32 61.36 61.16 60.46 60.32 59.75
45.68 46.23 43.40 42.85 45.50 48.72 51.38 54.53 55.14 56.56 57.60 57.49 57.24 57.65 57.87 57.53 56.71 56.87 56.18 56.40 58.16 60.04 61.03 61.78 61.52 60.98 61.93 64.58 64.58 65.48 65.44 64.74 63.47 62.34 60.55 58.95 57.84 56.03 52.49 50.58 54.04 55.43 50.79 55.35
48.13 45.11 43.56 43.00 47.41 47.54 50.09 56.20 57.23 56.46 56.43 56.46 55.34 54.28 56.41 56.86 56.71 56.02 56.14 56.00 57.47 59.09 60.99 61.16 61.16 61.50 61.75 62.75 62.79 63.53 64.13 63.13 61.74 59.83 58.97 57.94 57.00 55.19 54.44 52.11 48.93 46.56 45.77 46.77
MSLP
1008.88 1009.70 1009.93 1009.75 1010.12 1010.54 1010.90 1011.62 1011.89 1011.78 1011.89 1012.30 1012.98 1013.31 1013.35 1013.87 1014.22 1014.30 1014.14 1014.13 1014.48 1014.45 1014.36 1014.71 1015.06 1015.45 1015.81 1016.41 1016.67 1016.99 1017.13 1017.12 1017.39 1017.63 1017.95 1018.10 1018.32 1018.51 1018.58 1018.81 1019.04 1018.91 1018.78 1018.70
1009.45 1009.47 1008.87 1009.37 1009.57 1009.91 1010.39 1011.30 1011.65 1011.66 1011.85 1012.16 1012.64 1013.11 1013.10 1013.71 1013.91 1014.30 1014.37 1013.97 1014.06 1014.44 1014.65 1014.63 1014.84 1015.20 1015.60 1016.00 1016.42 1016.84 1016.89 1017.03 1017.11 1017.24 1017.35 1017.61 1018.00 1018.36 1018.43 1018.71 1018.81 1018.80 1018.73 1018.78
1009.03 1008.08 1007.86 1008.72 1008.89 1009.40 1010.11 1010.71 1010.95 1011.06 1011.81 1012.43 1012.65 1012.65 1013.15 1013.46 1013.43 1013.98 1014.30 1014.15 1013.92 1014.15 1014.30 1014.45 1014.57 1014.87 1015.27 1015.81 1015.96 1016.38 1016.60 1016.85 1017.04 1017.21 1017.32 1017.66 1018.14 1018.57 1018.82 1018.86 1018.85 1018.59 1018.67 1018.97
1008.16 1007.03 1007.23 1007.72 1008.20 1008.68 1009.37 1009.73 1010.37 1011.18 1012.41 1012.89 1012.92 1013.44 1012.77 1012.90 1013.23 1013.28 1013.45 1013.82 1013.93 1014.14 1014.44 1014.43 1014.27 1014.53 1014.93 1015.19 1015.42 1015.96 1016.38 1016.59 1016.92 1017.13 1017.29 1017.67 1018.05 1018.41 1018.59 1018.64 1018.71 1018.73 1018.79 1019.15
1007.25 1006.51 1006.32 1006.76 1006.95 1007.78 1008.55 1008.83 1010.13 1011.88 1012.94 1013.53 1013.61 1013.72 1012.67 1012.76 1013.06 1013.20 1013.18 1013.03 1013.45 1013.70 1014.08 1014.21 1014.11 1014.27 1014.52 1015.02 1015.25 1015.56 1016.10 1016.49 1016.58 1016.80 1016.93 1017.50 1018.00 1017.88 1018.10 1018.47 1018.63 1018.68 1018.69 1019.06
1006.84 1005.84 1005.67 1005.65 1006.27 1007.14 1008.06 1009.68 1011.54 1013.07 1014.07 1014.66 1013.94 1014.14 1013.33 1013.09 1012.64 1011.79 1011.79 1012.07 1012.71 1013.21 1013.49 1013.84 1013.88 1014.19 1014.69 1014.99 1015.22 1015.59 1016.09 1016.31 1016.57 1016.71 1016.97 1017.37 1017.89 1018.05 1018.12 1018.48 1018.76 1018.95 1018.95 1019.11
1006.92 1006.11 1005.45 1005.38 1006.17 1007.23 1008.47 1010.68 1013.01 1014.73 1015.26 1015.06 1014.40 1014.45 1013.03 1012.48 1011.96 1011.20 1010.91 1011.00 1011.11 1012.06 1013.17 1013.36 1013.69 1014.03 1014.52 1014.71 1015.10 1015.48 1015.96 1016.17 1016.45 1016.70 1016.88 1017.22 1017.62 1017.95 1017.95 1018.11 1018.47 1018.91 1018.99 1019.06
1007.93 1006.81 1005.79 1005.36 1005.85 1006.90 1008.55 1010.11 1012.05 1013.94 1015.31 1014.95 1014.54 1013.71 1012.08 1011.76 1011.39 1010.58 1010.29 1010.73 1011.06 1011.36 1011.98 1012.94 1013.05 1013.22 1013.82 1014.12 1014.68 1015.29 1015.65 1016.04 1016.24 1016.63 1016.71 1016.89 1017.24 1017.64 1017.76 1017.72 1018.10 1018.30 1018.52 1018.64
1008.13 1007.21 1006.07 1005.65 1005.84 1006.60 1008.39 1009.88 1011.20 1013.46 1015.13 1015.27 1014.65 1013.28 1011.97 1011.65 1011.66 1011.40 1010.39 1010.68 1011.20 1011.35 1011.50 1011.93 1012.70 1012.94 1013.23 1013.69 1014.08 1014.46 1015.06 1015.53 1015.88 1016.25 1016.66 1016.78 1016.92 1017.35 1017.61 1017.67 1017.86 1018.04 1018.12 1018.21
1007.97 1007.96 1007.17 1006.57 1006.13 1006.99 1007.87 1009.57 1011.54 1013.36 1015.29 1015.77 1014.92 1013.95 1012.65 1011.80 1011.41 1011.26 1011.08 1011.06 1010.98 1010.96 1011.26 1011.76 1012.16 1012.84 1012.93 1013.29 1013.41 1013.85 1014.36 1014.64 1014.99 1015.73 1016.16 1016.45 1016.60 1016.80 1017.14 1017.46 1017.60 1017.73 1017.83 1017.85
1007.94 1008.74 1008.59 1007.84 1007.96 1008.20 1008.77 1009.98 1011.94 1013.62 1014.84 1015.51 1015.31 1013.95 1012.02 1011.44 1011.23 1011.64 1011.55 1011.20 1010.98 1010.43 1010.57 1011.23 1011.58 1012.12 1012.38 1012.87 1013.17 1013.38 1013.82 1014.31 1014.61 1014.95 1015.63 1016.10 1016.35 1016.54 1016.71 1017.10 1017.33 1017.44 1017.55 1017.63
1008.37 1009.47 1009.86 1009.37 1008.51 1008.61 1008.80 1009.84 1011.41 1013.49 1015.03 1015.37 1014.95 1013.23 1011.76 1011.26 1011.39 1011.54 1011.98 1011.86 1010.39 1010.03 1010.07 1010.74 1011.23 1011.83 1012.25 1012.49 1012.73 1012.95 1013.53 1014.02 1013.91 1014.15 1014.78 1015.39 1015.93 1016.32 1016.50 1016.75 1016.95 1017.13 1017.23 1017.37
1008.50 1010.24 1010.81 1010.20 1009.67 1009.03 1009.55 1009.98 1011.13 1012.56 1013.73 1014.69 1014.66 1013.18 1011.92 1011.70 1011.55 1011.58 1011.78 1011.98 1011.45 1010.47 1010.23 1010.33 1010.77 1011.10 1011.40 1012.15 1012.38 1012.40 1012.76 1012.94 1013.37 1013.78 1014.20 1014.67 1015.29 1015.84 1016.21 1016.29 1016.56 1016.85 1016.98 1017.20
1008.21 1010.89 1011.33 1011.17 1010.54 1010.25 1010.04 1010.09 1010.60 1011.74 1013.14 1014.01 1013.47 1012.67 1012.40 1011.92 1011.56 1011.17 1011.40 1011.41 1011.23 1010.82 1010.83 1010.65 1010.54 1010.68 1010.45 1010.73 1011.33 1011.88 1011.84 1012.30 1012.65 1013.23 1013.81 1014.12 1014.51 1015.03 1015.55 1015.93 1016.16 1016.48 1016.72 1016.88
1009.37 1011.09 1011.48 1011.30 1010.87 1010.19 1009.83 1009.80 1010.34 1010.97 1011.52 1012.23 1011.90 1012.09 1011.69 1011.98 1011.91 1011.47 1011.24 1011.65 1011.63 1011.39 1010.95 1010.86 1010.85 1010.74 1010.71 1010.82 1010.78 1010.91 1011.34 1011.70 1011.98 1012.67 1013.15 1013.29 1013.73 1014.25 1014.91 1015.34 1015.75 1016.04 1016.30 1016.51
1010.02 1011.53 1011.84 1011.92 1011.13 1010.31 1009.98 1009.71 1009.86 1010.15 1010.79 1011.37 1011.44 1011.68 1011.37 1011.59 1011.87 1011.72 1011.06 1011.32 1011.88 1011.97 1011.95 1011.63 1011.41 1011.23 1011.06 1010.80 1010.60 1010.60 1010.59 1011.15 1011.77 1011.82 1012.45 1012.88 1013.38 1013.80 1014.29 1014.79 1015.16 1015.53 1015.87 1016.07
1010.50 1011.61 1012.69 1012.56 1011.63 1010.77 1010.51 1010.08 1009.84 1010.12 1010.51 1010.93 1011.28 1011.17 1011.83 1012.13 1011.99 1011.58 1011.64 1011.92 1012.02 1012.00 1011.87 1011.92 1011.82 1011.81 1011.39 1010.82 1010.28 1010.23 1010.30 1010.53 1011.15 1011.55 1012.02 1012.49 1012.88 1013.39 1013.74 1014.20 1014.60 1014.78 1015.11 1015.41
1010.62 1011.94 1012.77 1013.34 1012.49 1011.87 1010.69 1009.90 1009.87 1010.38 1010.83 1010.97 1010.97 1011.17 1011.52 1011.88 1012.03 1011.93 1011.96 1012.32 1012.60 1012.32 1011.97 1012.02 1011.93 1011.87 1011.30 1010.67 1010.38 1010.23 1010.34 1010.66 1010.98 1011.68 1012.16 1012.60 1012.54 1012.75 1013.09 1013.66 1013.94 1014.19 1014.53 1014.80
1009.88 1011.76 1013.47 1013.80 1013.27 1012.29 1010.65 1010.26 1010.02 1010.42 1011.15 1011.10 1011.38 1011.65 1011.89 1012.03 1011.94 1011.26 1011.13 1011.24 1011.65 1012.06 1012.07 1011.98 1011.88 1011.47 1010.73 1010.58 1010.43 1010.35 1010.48 1010.73 1011.22 1011.51 1011.63 1012.66 1012.92 1012.65 1013.12 1013.41 1013.54 1013.55 1014.19 1014.75
1010.78 1011.29 1012.64 1014.12 1013.65 1012.51 1010.78 1009.71 1009.56 1010.18 1011.19 1010.96 1011.24 1011.50 1011.76 1012.14 1012.56 1011.76 1011.51 1011.43 1011.56 1011.78 1011.78 1011.54 1011.42 1010.85 1010.54 1010.20 1010.19 1010.25 1010.58 1010.81 1011.08 1011.39 1011.42 1012.17 1012.93 1012.52 1012.55 1012.88 1013.33 1013.19 1013.54 1014.40
1011.51 1012.52 1013.11 1013.52 1012.99 1011.77 1010.11 1009.32 1009.75 1010.45 1010.87 1010.37 1010.69 1011.01 1011.60 1012.24 1011.93 1011.77 1011.67 1011.70 1011.74 1011.64 1011.44 1011.29 1011.12 1010.80 1010.27 1009.82 1009.94 1009.99 1010.31 1010.45 1010.76 1011.32 1011.59 1012.34 1012.64 1013.01 1012.55 1012.64 1012.85 1013.16 1013.68 1014.40
1011.08 1012.10 1012.91 1013.22 1012.50 1010.87 1009.17 1009.27 1009.59 1009.79 1009.87 1010.02 1010.44 1010.66 1011.17 1011.11 1011.39 1011.46 1011.48 1011.64 1011.85 1011.80 1011.70 1011.40 1011.24 1010.56 1009.80 1009.83 1009.73 1009.71 1010.17 1010.69 1010.96 1011.42 1011.48 1011.94 1012.61 1012.92 1012.55 1012.67 1013.33 1013.73 1014.09 1015.03
1010.55 1010.30 1010.97 1011.35 1010.50 1009.43 1008.88 1008.74 1008.86 1009.29 1009.66 1010.08 1010.27 1010.20 1010.68 1011.05 1011.17 1011.58 1011.78 1012.00 1011.82 1011.77 1011.71 1011.36 1011.03 1010.38 1009.95 1009.90 1009.96 1010.10 1010.35 1010.62 1010.63 1011.20 1011.99 1012.65 1012.80 1013.03 1012.97 1012.95 1013.67 1014.25 1014.57 1015.91
1009.83 1009.70 1009.91 1010.36 1009.69 1009.11 1008.71 1008.74 1008.80 1008.87 1009.24 1009.47 1009.79 1010.17 1010.69 1011.04 1011.18 1011.50 1011.95 1012.22 1012.31 1012.01 1011.66 1011.56 1011.20 1010.74 1010.18 1009.98 1010.05 1010.25 1010.35 1010.83 1011.46 1011.78 1012.26 1013.00 1013.29 1013.20 1013.47 1013.82 1013.84 1014.49 1015.44 1016.20
1009.33 1009.37 1009.66 1009.82 1009.48 1009.13 1008.85 1008.86 1008.92 1009.07 1009.21 1009.74 1010.09 1010.31 1010.62 1010.97 1011.10 1011.39 1011.94 1012.32 1012.32 1012.27 1011.84 1011.59 1011.47 1011.06 1010.48 1010.24 1010.37 1010.57 1010.74 1011.33 1011.79 1012.34 1012.97 1013.38 1013.85 1013.36 1013.85 1014.40 1013.93 1015.38 1016.15 1016.50
1008.76 1008.57 1008.88 1008.81 1008.22 1008.22 1008.34 1008.56 1009.01 1009.28 1009.61 1009.85 1010.05 1010.37 1010.41 1010.73 1010.99 1011.37 1011.90 1012.18 1012.29 1012.30 1012.13 1011.87 1011.43 1011.18 1010.77 1010.53 1010.59 1010.80 1011.30 1011.83 1012.23 1013.01 1013.41 1013.78 1014.27 1014.76 1014.83 1015.28 1016.24 1016.96 1017.12 1017.10
Wind_Speed
4 5 6 10 7 4 6 4 3 4 6 4 6 4 7 5 3 4 3 11 7 12 11 11 13 12 10 7 8 7 8 7 5 2 3 1 3 2 2 2 5 5 3 2
6 5 10 6 7 5 9 6 4 1 5 6 7 7 6 9 5 6 6 7 11 6 9 11 9 15 13 12 11 8 9 8 6 4 3 3 3 1 0 2 3 5 4 2
6 8 6 6 3 5 3 7 6 4 4 5 2 6 5 4 4 7 7 4 3 9 14 9 13 16 15 13 13 11 9 10 6 5 3 3 3 3 2 1 2 3 4 3
7 6 9 6 6 8 5 8 8 7 5 1 1 3 6 6 9 10 11 9 6 6 5 8 13 15 15 15 12 10 8 8 6 7 5 5 4 4 3 3 3 4 5 4
8 3 4 4 6 10 9 16 12 11 4 1 1 3 6 4 3 6 9 10 10 7 6 10 14 13 14 11 11 11 8 7 7 7 6 5 3 2 1 2 3 3 3 4
6 3 3 3 4 8 9 10 9 7 4 4 2 3 5 2 3 5 8 13 13 12 11 6 7 11 8 8 9 9 8 8 6 7 7 7 7 5 2 3 3 2 1 2
6 2 3 4 4 4 9 8 4 4 2 7 4 4 8 5 7 7 12 16 18 16 11 10 11 12 11 12 11 9 8 9 7 7 7 7 7 7 6 6 5 4 2 2
2 8 2 1 6 7 3 9 7 4 4 3 3 4 6 5 6 3 7 9 13 15 13 14 16 16 14 14 13 12 11 9 8 6 7 7 7 4 5 5 4 4 5 4
3 5 4 0 3 8 3 2 4 9 3 2 3 6 3 2 3 5 6 8 10 11 14 18 13 11 10 13 15 16 14 12 10 9 6 7 7 7 6 6 5 4 4 4
5 2 2 7 4 4 4 5 4 4 5 3 4 4 5 5 4 4 5 5 6 10 9 11 12 13 13 13 14 13 13 15 13 11 9 7 8 7 7 5 6 6 5 5
5 4 6 3 5 4 3 2 8 7 4 6 1 7 6 8 2 6 4 7 6 8 10 11 13 13 12 10 12 13 14 13 11 12 10 8 7 8 6 6 6 6 6 6
2 6 1 2 4 3 3 4 5 6 3 1 3 7 3 9 2 5 4 5 5 6 9 7 11 11 12 11 10 13 11 11 13 12 11 10 7 7 7 7 6 6 7 5
5 3 3 9 8 6 6 3 5 6 4 5 6 7 2 7 6 1 6 2 6 4 6 8 8 11 12 12 11 13 15 17 13 11 11 11 10 8 7 7 7 6 6 7
10 4 7 7 6 3 3 3 4 5 4 6 7 4 6 8 8 7 5 5 3 2 1 2 5 5 9 13 13 13 14 13 13 12 12 12 12 11 10 8 8 7 6 6
6 4 2 2 3 3 3 2 2 5 5 6 6 9 6 9 8 9 5 3 2 3 5 5 5 4 5 7 10 11 12 13 15 14 13 15 13 11 10 8 8 8 8 7
2 3 4 1 3 2 2 6 1 2 4 2 1 4 3 3 3 7 11 3 4 5 3 5 4 6 6 5 9 10 11 13 12 14 15 12 10 10 11 10 9 8 8 8
4 7 4 3 3 3 5 3 1 2 3 1 4 4 5 4 8 9 6 4 5 4 2 4 5 6 7 7 5 11 11 10 12 12 10 11 10 11 11 10 9 10 9 8
7 6 3 3 3 0 7 2 6 7 3 4 2 3 4 2 4 6 3 4 5 2 2 5 5 6 6 5 4 4 6 8 10 8 5 3 7 10 10 10 12 10 8 10
4 7 4 5 4 4 3 6 5 5 3 2 1 1 4 5 5 8 8 6 4 6 5 5 5 7 5 6 5 5 5 6 5 6 8 2 5 4 5 9 11 8 5 4
6 6 7 3 4 5 7 3 4 5 1 3 6 8 6 2 3 7 5 4 3 3 2 5 6 5 5 6 7 6 6 5 7 5 9 5 4 3 7 8 7 5 6 6
3 4 6 4 3 6 7 5 7 2 9 7 5 6 6 6 6 3 2 3 1 1 4 6 6 6 6 4 8 9 7 7 6 6 4 3 3 5 3 4 3 5 7 9
8 7 4 4 3 5 7 4 7 8 1 7 6 8 7 9 4 3 4 3 3 2 5 5 6 6 4 4 3 5 6 5 8 8 7 5 5 1 4 9 7 7 9 10
1 8 8 9 9 5 3 5 3 6 6 5 7 9 7 6 4 5 4 4 3 4 4 4 5 4 4 3 3 5 3 8 9 8 7 7 7 7 4 9 9 8 9 7
2 3 5 5 4 5 6 2 5 7 7 5 5 4 4 6 4 5 4 2 1 3 5 4 3 4 3 3 4 4 7 7 9 10 9 8 8 8 8 6 8 8 6 5
5 5 6 2 2 3 1 1 6 6 5 4 3 4 6 7 7 6 5 5 4 3 4 3 2 2 1 5 6 6 8 7 7 8 7 7 6 8 9 8 8 6 4 4
5 8 6 7 9 7 9 9 5 8 7 8 7 3 4 5 6 3 4 4 3 4 4 4 2 2 2 6 7 7 7 8 9 7 5 5 6 6 6 7 7 14 7 7
Wind_Direction
358 71 198 194 201 159 175 144 172 213 153 124 197 220 185 221 154 213 161 158 155 179 179 172 180 191 178 189 188 194 183 187 160 137 151 111 210 161 207 189 236 234 225 220
22 235 229 166 194 210 179 137 208 236 183 187 171 210 186 177 181 195 230 165 160 156 166 178 183 187 189 188 199 188 187 176 180 170 161 148 134 161 122 141 211 220 217 153
169 230 125 154 212 146 160 189 190 180 174 28 335 332 155 200 176 158 223 240 167 174 178 201 177 183 180 194 193 185 182 180 191 179 112 59 69 72 87 110 243 241 203 170
222 258 184 156 198 157 218 165 169 135 88 201 343 284 293 158 183 189 189 196 199 189 184 188 174 175 183 196 191 175 185 178 186 180 147 149 171 166 188 176 203 179 185 177
266 309 101 139 210 159 226 160 160 109 66 57 300 85 269 118 195 204 217 199 198 191 194 193 176 178 185 177 186 182 171 185 175 178 174 159 158 180 150 143 155 213 201 166
242 276 190 213 122 184 103 83 47 54 35 360 250 130 307 353 326 245 197 187 185 184 194 186 179 171 180 175 171 173 177 187 183 179 175 169 176 190 192 159 177 212 208 193
326 261 287 141 89 69 72 76 35 10 19 222 126 111 245 264 266 273 195 199 189 178 176 181 177 176 180 178 178 174 179 193 187 189 170 179 188 193 216 185 183 173 181 229
103 325 206 240 172 174 129 143 150 172 195 251 141 231 255 207 251 322 181 192 184 180 169 189 192 183 184 185 182 187 184 197 186 192 192 184 186 190 210 200 184 199 194 198
150 312 293 18 155 122 186 83 164 103 6 55 271 290 280 203 224 344 130 143 180 188 178 184 190 188 185 188 190 188 190 194 194 190 197 196 192 192 209 210 194 198 233 210
206 86 360 300 56 52 124 155 78 19 137 219 291 279 245 253 239 137 57 85 161 180 179 186 184 202 195 198 192 189 196 198 191 192 194 202 205 198 202 191 210 209 236 242
118 98 290 23 40 244 8 74 55 105 103 150 170 268 223 241 137 113 178 161 183 171 174 176 190 205 202 201 195 191 196 201 194 187 191 202 206 210 198 193 200 211 214 229
54 135 123 197 280 314 164 127 124 116 223 103 134 272 265 252 72 82 271 276 153 115 150 171 180 200 205 196 190 196 197 212 203 199 187 193 195 209 199 199 209 212 204 210
189 25 25 353 354 356 56 15 98 101 85 188 136 260 318 302 299 163 183 217 319 115 143 152 160 185 185 199 199 200 194 205 199 190 197 191 194 196 210 201 200 213 203 208
90 113 149 181 203 196 319 4 161 119 124 174 221 226 247 259 258 277 189 197 204 58 36 173 161 193 195 190 193 204 203 200 193 188 197 201 201 202 205 201 191 199 210 210
100 114 159 156 255 235 237 330 160 177 187 159 242 200 220 217 240 269 293 186 144 185 169 192 253 239 205 205 194 195 201 200 192 190 194 203 205 196 200 200 202 201 199 210
20 158 147 149 286 64 360 340 218 67 131 256 186 230 246 206 268 268 256 304 353 15 355 355 327 295 281 246 205 201 187 196 197 189 200 200 194 191 202 207 203 203 204 210
113 131 102 226 334 21 358 322 133 26 24 146 195 205 153 244 249 259 288 328 310 19 31 349 332 306 296 287 232 197 198 181 188 194 195 190 185 199 204 206 207 208 207 201
131 101 92 175 30 88 240 323 111 102 14 353 56 173 194 296 261 269 248 222 191 256 216 279 284 281 283 268 196 130 144 159 151 127 120 262 200 201 202 204 208 211 202 205
119 121 95 134 175 273 286 185 193 139 285 292 135 274 288 329 335 294 223 218 194 177 207 247 261 269 294 284 235 159 145 119 116 141 118 185 252 188 216 211 217 207 192 176
68 69 112 132 137 203 237 256 135 119 312 218 196 206 207 122 4 266 358 97 90 30 320 318 305 299 287 278 201 171 178 163 163 133 91 88 301 219 208 221 208 181 152 140
61 33 142 144 164 281 246 232 137 149 234 210 205 225 165 193 199 249 8 87 123 231 318 315 306 291 291 291 199 189 177 184 166 132 116 97 351 302 198 185 185 132 124 109
154 140 174 92 104 265 194 96 161 212 225 196 209 229 210 232 185 223 234 193 178 273 301 304 294 286 324 306 227 201 190 119 120 130 141 127 157 248 119 113 107 108 102 99
151 173 177 164 205 227 230 178 154 155 164 205 212 240 231 257 250 171 211 222 284 300 290 292 293 304 306 178 117 129 115 134 139 136 123 128 99 94 70 119 114 116 109 120
323 171 112 99 253 190 190 141 159 174 159 194 214 234 200 231 250 225 189 206 180 287 303 301 299 323 306 153 145 106 97 116 137 124 119 122 126 106 100 80 98 88 93 108
192 128 142 257 276 52 49 191 167 149 127 127 155 198 203 208 232 207 173 187 202 227 271 286 276 314 102 147 135 121 103 114 115 104 107 108 101 98 91 67 59 78 73 88
192 166 156 210 203 161 197 187 190 151 174 187 170 219 220 204 243 163 176 176 191 218 231 230 241 116 99 127 106 105 118 122 115 110 103 91 109 88 85 100 89 53 64 101